| time (UTC) | temp F | wind direction | speed MPH | gust MPH | rain 1hr in | rain 24hr in | rain mn in | humidity % | barometer mb |
| 20260904163202 | 81 | 250 | 20.0 | 0.0 | 0.00 | 0.00 | 0.00 | 44 | 1011.0 |
| 20260904162106 | 82 | 240 | 18.0 | 0.0 | 0.00 | 0.00 | 0.00 | 42 | |
| 20260904160202 | 82 | 240 | 20.0 | 0.0 | 0.00 | 0.00 | 0.00 | 42 | 1011.0 |
| 20260904153203 | 82 | 240 | 23.0 | 0.0 | 0.00 | 0.00 | 0.00 | 45 | 1011.0 |
| 20260904151839 | 81 | 230 | 20.0 | 0.0 | 0.00 | 0.00 | 0.00 | 44 | |
| 20260904150203 | 82 | 230 | 24.0 | 0.0 | 0.00 | 0.00 | 0.00 | 45 | 1011.0 |
| 20260904143202 | 82 | 230 | 24.0 | 0.0 | 0.00 | 0.00 | 0.00 | 45 | 1012.0 |
| 20260904141820 | 81 | 230 | 22.0 | 0.0 | 0.00 | 0.00 | 0.00 | 44 | |
| 20260904140203 | 81 | 230 | 25.0 | 0.0 | 0.00 | 0.00 | 0.00 | 47 | 1012.0 |
| 20260904133202 | 81 | 240 | 24.0 | 0.0 | 0.00 | 0.00 | 0.00 | 47 | 1013.0 |
| 20260904132039 | 81 | 250 | 22.0 | 0.0 | 0.00 | 0.00 | 0.00 | 44 | |
| 20260904130203 | 81 | 250 | 25.0 | 37.0 | 0.00 | 0.00 | 0.00 | 47 | 1013.0 |
| 20260904123203 | 81 | 250 | 28.0 | 39.0 | 0.00 | 0.00 | 0.00 | 47 | 1014.0 |
| 20260904122603 | 79 | 240 | 28.0 | 39.0 | 0.00 | 0.00 | 0.00 | 50 | 1014.0 |
| 20260904121805 | 79 | 260 | 22.0 | 0.0 | 0.00 | 0.00 | 0.00 | 50 | |
| 20260904120203 | 79 | 240 | 25.0 | 0.0 | 0.00 | 0.00 | 0.00 | 50 | 1014.0 |
| 20260904113203 | 77 | 250 | 22.0 | 0.0 | 0.00 | 0.00 | 0.00 | 53 | 1015.0 |
| 20260904111806 | 75 | 250 | 22.0 | 33.0 | 0.00 | 0.00 | 0.00 | 57 | |
| 20260904110203 | 77 | 250 | 22.0 | 33.0 | 0.00 | 0.00 | 0.00 | 53 | 1015.0 |
| 20260904103202 | 75 | 240 | 23.0 | 0.0 | 0.00 | 0.00 | 0.00 | 57 | 1015.0 |
| 20260904102223 | 75 | 240 | 20.0 | 0.0 | 0.00 | 0.00 | 0.00 | 57 | |
| 20260904100202 | 75 | 240 | 18.0 | 0.0 | 0.00 | 0.00 | 0.00 | 57 | 1016.0 |
| 20260904093202 | 73 | 220 | 21.0 | 0.0 | 0.00 | 0.00 | 0.00 | 60 | 1016.0 |
| 20260904091821 | 72 | 230 | 20.0 | 0.0 | 0.00 | 0.00 | 0.00 | 60 | |
| 20260904090203 | 72 | 210 | 22.0 | 0.0 | 0.00 | 0.00 | 0.00 | 64 | 1016.0 |
| 20260904083203 | 72 | 210 | 21.0 | 0.0 | 0.00 | 0.00 | 0.00 | 64 | 1017.0 |
| 20260904082403 | 72 | 210 | 20.0 | 0.0 | 0.00 | 0.00 | 0.00 | 64 | 1017.0 |
| 20260904081820 | 70 | 230 | 20.0 | 0.0 | 0.00 | 0.00 | 0.00 | 64 | |
| 20260904080203 | 68 | 210 | 21.0 | 0.0 | 0.00 | 0.00 | 0.00 | 68 | 1017.0 |
| 20260904073202 | 68 | 210 | 20.0 | 0.0 | 0.00 | 0.00 | 0.00 | 68 | 1017.0 |
| 20260904072032 | 66 | 230 | 16.0 | 0.0 | 0.00 | 0.00 | 0.00 | 72 | |
| 20260904070203 | 66 | 210 | 13.0 | 0.0 | 0.00 | 0.00 | 0.00 | 72 | 1017.0 |
| 20260904063203 | 66 | 200 | 15.0 | 0.0 | 0.00 | 0.00 | 0.00 | 72 | 1017.0 |
| 20260904061805 | 64 | 230 | 14.0 | 0.0 | 0.00 | 0.00 | 0.00 | 72 | |
| 20260904060202 | 64 | 210 | 13.0 | 0.0 | 0.00 | 0.00 | 0.00 | 77 | 1017.0 |
| 20260904053202 | 63 | 200 | 12.0 | 0.0 | 0.00 | 0.00 | 0.00 | 82 | 1017.0 |
| 20260904051806 | 63 | 220 | 12.0 | 0.0 | 0.00 | 0.00 | 0.00 | 77 | |
| 20260904050203 | 63 | 200 | 12.0 | 0.0 | 0.00 | 0.00 | 0.00 | 82 | 1018.0 |
| 20260904043203 | 61 | 200 | 12.0 | 0.0 | 0.00 | 0.00 | 0.00 | 82 | 1018.0 |
| 20260904042207 | 61 | 220 | 12.0 | 0.0 | 0.00 | 0.00 | 0.00 | 82 | |
| 20260904040203 | 61 | 200 | 15.0 | 0.0 | 0.00 | 0.00 | 0.00 | 87 | 1018.0 |
| 20260904033203 | 61 | 190 | 13.0 | 0.0 | 0.00 | 0.00 | 0.00 | 87 | 1018.0 |
| 20260904031805 | 61 | 220 | 12.0 | 0.0 | 0.00 | 0.00 | 0.00 | 82 | |
| 20260904030204 | 63 | 190 | 12.0 | 0.0 | 0.00 | 0.00 | 0.00 | 82 | 1018.0 |
| 20260904023203 | 61 | 210 | 9.0 | 0.0 | 0.00 | 0.00 | 0.00 | 87 | 1018.0 |
| 20260904021807 | 63 | 230 | 9.0 | 0.0 | 0.00 | 0.00 | 0.00 | 77 | |
| 20260904020202 | 63 | 240 | 9.0 | 0.0 | 0.00 | 0.00 | 0.00 | 82 | 1018.0 |
| 20260904013202 | 63 | 240 | 10.0 | 0.0 | 0.00 | 0.00 | 0.00 | 82 | 1018.0 |
| 20260904012107 | 63 | 240 | 12.0 | 0.0 | 0.00 | 0.00 | 0.00 | 82 | |
| 20260904010202 | 63 | 240 | 12.0 | 0.0 | 0.00 | 0.00 | 0.00 | 82 | 1018.0 |
| 20260904003202 | 63 | 240 | 12.0 | 0.0 | 0.00 | 0.00 | 0.00 | 82 | 1018.0 |
| 20260904001806 | 63 | 240 | 14.0 | 0.0 | 0.00 | 0.00 | 0.00 | 82 | |
| 20260904000204 | 63 | 210 | 14.0 | 0.0 | 0.00 | 0.00 | 0.00 | 82 | 1019.0 |
| 20260903233203 | 63 | 210 | 12.0 | 0.0 | 0.00 | 0.00 | 0.00 | 82 | 1019.0 |
| 20260903231806 | 63 | 230 | 14.0 | 0.0 | 0.00 | 0.00 | 0.00 | 82 | |
| 20260903230202 | 63 | 210 | 12.0 | 0.0 | 0.00 | 0.00 | 0.00 | 82 | 1019.0 |
| 20260903223202 | 63 | 210 | 12.0 | 0.0 | 0.00 | 0.00 | 0.00 | 82 | 1019.0 |
| 20260903222206 | 63 | 230 | 14.0 | 0.0 | 0.00 | 0.00 | 0.00 | 77 | |
| 20260903220204 | 63 | 220 | 14.0 | 0.0 | 0.00 | 0.00 | 0.00 | 82 | 1019.0 |
| 20260903213202 | 63 | 220 | 14.0 | 0.0 | 0.00 | 0.00 | 0.00 | 82 | 1019.0 |
| 20260903211806 | 63 | 230 | 14.0 | 0.0 | 0.00 | 0.00 | 0.00 | 77 | |
| 20260903210203 | 63 | 210 | 14.0 | 0.0 | 0.00 | 0.00 | 0.00 | 82 | 1019.0 |
| 20260903203203 | 63 | 220 | 13.0 | 0.0 | 0.00 | 0.00 | 0.00 | 82 | 1019.0 |
| 20260903201806 | 63 | 230 | 12.0 | 0.0 | 0.00 | 0.00 | 0.00 | 77 | |
| 20260903200202 | 63 | 200 | 13.0 | 0.0 | 0.00 | 0.00 | 0.00 | 82 | 1019.0 |
| 20260903193202 | 63 | 190 | 12.0 | 0.0 | 0.00 | 0.00 | 0.00 | 82 | 1019.0 |
| 20260903192024 | 63 | 230 | 9.0 | 0.0 | 0.00 | 0.00 | 0.00 | 77 | |
| 20260903190203 | 63 | 230 | 12.0 | 0.0 | 0.00 | 0.00 | 0.00 | 82 | 1020.0 |
| 20260903183203 | 64 | 230 | 14.0 | 0.0 | 0.00 | 0.00 | 0.00 | 72 | 1020.0 |
| 20260903181806 | 64 | 260 | 12.0 | 0.0 | 0.00 | 0.00 | 0.00 | 72 | |
| 20260903180203 | 64 | 230 | 15.0 | 0.0 | 0.00 | 0.00 | 0.00 | 72 | 1020.0 |
| 20260903174202 | 66 | 240 | 20.0 | 0.0 | 0.00 | 0.00 | 0.00 | 68 | 1020.0 |
| 20260903173202 | 66 | 240 | 20.0 | 0.0 | 0.00 | 0.00 | 0.00 | 63 | 1019.0 |
| 20260903171819 | 68 | 270 | 14.0 | 0.0 | 0.00 | 0.00 | 0.00 | 60 | |
| 20260903170203 | 68 | 240 | 16.0 | 0.0 | 0.00 | 0.00 | 0.00 | 60 | 1019.0 |